• în România
  • Lista ţărilor
  • Pe 7 zile
  • Temperatura apei
  • Hartă satelitară
  • Meteo pe hartă
  • Widget-uri
  • user-avatar
    Intrare

    Meteo pe oră la Annaba

    Astăzi, 23 Mai, Marţi

    Timp Temperatura Precipitaţii Vânt Presiune Umiditate
    00:00 +17°C° 0 mm 2 m/s 760 mmHg 78%
    01:00 +17°C° 0 mm 2 m/s 760 mmHg 78%
    02:00 +17°C° 0 mm 2 m/s 760 mmHg 78%
    03:00 +17°C° 0 mm 2 m/s 760 mmHg 78%
    04:00 +17°C° 0 mm 2 m/s 760 mmHg 77%
    05:00 +19°C° 0 mm 2 m/s 760 mmHg 69%
    06:00 +21°C° 0 mm 2 m/s 760 mmHg 61%
    07:00 +25°C° 0 mm 2 m/s 760 mmHg 53%
    08:00 +26°C° 0 mm 2 m/s 760 mmHg 47%
    09:00 +28°C° 0 mm 2 m/s 760 mmHg 41%
    10:00 +30°C° 0 mm 3 m/s 760 mmHg 34%
    11:00 +31°C° 0 mm 3 m/s 760 mmHg 33%
    12:00 +32°C° 0 mm 4 m/s 760 mmHg 32%
    13:00 +33°C° 0 mm 4 m/s 760 mmHg 31%
    14:00 +33°C° 0 mm 5 m/s 760 mmHg 33%
    15:00 +32°C° 0 mm 5 m/s 760 mmHg 35%
    16:00 +32°C° 0 mm 6 m/s 760 mmHg 37%
    17:00 +29°C° 0,1 mm 5 m/s 760 mmHg 45%
    18:00 +27°C° 0,1 mm 4 m/s 760 mmHg 52%
    19:00 +25°C° 0,1 mm 3 m/s 761 mmHg 59%
    20:00 +22°C° 0,1 mm 3 m/s 761 mmHg 66%
    21:00 +20°C° 0,1 mm 2 m/s 761 mmHg 73%
    22:00 +18°C° 0,1 mm 2 m/s 762 mmHg 80%
    23:00 +18°C° 0 mm 2 m/s 762 mmHg 82%

    Mâine, 24 Mai, Miercuri

    Timp Temperatura Precipitaţii Vânt Presiune Umiditate
    00:00 +17°C° 0 mm 2 m/s 762 mmHg 83%
    01:00 +18°C° 0 mm 1 m/s 762 mmHg 84%
    02:00 +16°C° 0 mm 1 m/s 761 mmHg 85%
    03:00 +16°C° 0 mm 1 m/s 761 mmHg 85%
    04:00 +16°C° 0 mm 1 m/s 761 mmHg 86%
    05:00 +19°C° 0 mm 1 m/s 761 mmHg 79%
    06:00 +21°C° 0 mm 1 m/s 761 mmHg 72%
    07:00 +23°C° 0 mm 1 m/s 761 mmHg 66%
    08:00 +25°C° 0 mm 1 m/s 762 mmHg 59%
    09:00 +27°C° 0 mm 1 m/s 762 mmHg 53%
    10:00 +29°C° 0 mm 2 m/s 762 mmHg 46%
    11:00 +30°C° 0 mm 2 m/s 762 mmHg 43%
    12:00 +31°C° 0 mm 3 m/s 761 mmHg 40%
    13:00 +33°C° 0 mm 4 m/s 761 mmHg 38%
    14:00 +32°C° 0 mm 4 m/s 761 mmHg 38%
    15:00 +32°C° 0 mm 4 m/s 761 mmHg 38%
    16:00 +32°C° 0 mm 4 m/s 760 mmHg 39%
    17:00 +29°C° 0 mm 4 m/s 760 mmHg 44%
    18:00 +27°C° 0 mm 3 m/s 760 mmHg 50%
    19:00 +26°C° 0 mm 3 m/s 760 mmHg 55%
    20:00 +23°C° 0 mm 2 m/s 761 mmHg 64%
    21:00 +20°C° 0 mm 2 m/s 761 mmHg 72%
    22:00 +19°C° 0 mm 1 m/s 761 mmHg 80%
    23:00 +19°C° 0 mm 1 m/s 761 mmHg 80%

    Poimâine, 25 Mai, Joi

    Timp Temperatura Precipitaţii Vânt Presiune Umiditate
    00:00 +18°C° 0 mm 1 m/s 761 mmHg 80%
    01:00 +18°C° 0 mm 1 m/s 761 mmHg 80%
    02:00 +18°C° 0 mm 1 m/s 761 mmHg 80%
    03:00 +18°C° 0 mm 1 m/s 760 mmHg 80%
    04:00 +18°C° 0 mm 1 m/s 760 mmHg 80%
    05:00 +20°C° 0 mm 1 m/s 760 mmHg 71%
    06:00 +23°C° 0 mm 1 m/s 760 mmHg 63%
    07:00 +25°C° 0 mm 1 m/s 760 mmHg 54%
    08:00 +27°C° 0 mm 1 m/s 760 mmHg 49%
    09:00 +29°C° 0 mm 1 m/s 760 mmHg 43%
    10:00 +31°C° 0 mm 2 m/s 760 mmHg 38%
    11:00 +32°C° 0 mm 2 m/s 760 mmHg 36%
    12:00 +34°C° 0 mm 3 m/s 759 mmHg 33%
    13:00 +35°C° 0 mm 4 m/s 759 mmHg 31%
    14:00 +35°C° 0 mm 4 m/s 759 mmHg 32%
    15:00 +34°C° 0 mm 5 m/s 759 mmHg 33%
    16:00 +34°C° 0 mm 5 m/s 758 mmHg 34%
    17:00 +32°C° 0 mm 4 m/s 759 mmHg 40%
    18:00 +29°C° 0 mm 3 m/s 759 mmHg 47%
    19:00 +26°C° 0 mm 3 m/s 759 mmHg 53%
    20:00 +24°C° 0 mm 2 m/s 759 mmHg 62%
    21:00 +21°C° 0 mm 1 m/s 759 mmHg 70%
    22:00 +19°C° 0 mm 1 m/s 760 mmHg 79%
    23:00 +19°C° 0 mm 1 m/s 760 mmHg 79%

    26 Mai, Vineri

    Timp Temperatura Precipitaţii Vânt Presiune Umiditate
    00:00 +19°C° 0 mm 1 m/s 759 mmHg 78%
    01:00 +19°C° 0 mm 1 m/s 759 mmHg 78%
    02:00 +19°C° 0 mm 1 m/s 759 mmHg 76%
    03:00 +19°C° 0 mm 1 m/s 759 mmHg 75%
    04:00 +20°C° 0 mm 1 m/s 758 mmHg 74%
    05:00 +22°C° 0 mm 1 m/s 758 mmHg 66%
    06:00 +24°C° 0 mm 1 m/s 758 mmHg 57%
    07:00 +26°C° 0 mm 1 m/s 758 mmHg 49%
    08:00 +28°C° 0 mm 1 m/s 758 mmHg 44%
    09:00 +31°C° 0 mm 1 m/s 758 mmHg 39%
    10:00 +33°C° 0 mm 1 m/s 758 mmHg 33%
    11:00 +35°C° 0 mm 2 m/s 758 mmHg 31%
    12:00 +36°C° 0 mm 3 m/s 757 mmHg 28%
    13:00 +37°C° 0 mm 4 m/s 757 mmHg 25%
    14:00 +36°C° 0 mm 4 m/s 757 mmHg 26%
    15:00 +36°C° 0 mm 4 m/s 757 mmHg 26%
    16:00 +36°C° 0 mm 4 m/s 756 mmHg 26%
    17:00 +33°C° 0 mm 4 m/s 757 mmHg 32%
    18:00 +30°C° 0 mm 3 m/s 757 mmHg 38%
    19:00 +28°C° 0 mm 3 m/s 757 mmHg 45%
    20:00 +26°C° 0 mm 2 m/s 757 mmHg 49%
    21:00 +24°C° 0 mm 2 m/s 757 mmHg 54%
    22:00 +21°C° 0 mm 2 m/s 758 mmHg 59%
    23:00 +23°C° 0 mm 2 m/s 757 mmHg 58%

    27 Mai, Sâmbătă

    Timp Temperatura Precipitaţii Vânt Presiune Umiditate
    00:00 +23°C° 0 mm 1 m/s 757 mmHg 58%
    01:00 +24°C° 0 mm 1 m/s 757 mmHg 57%
    02:00 +24°C° 0 mm 1 m/s 757 mmHg 56%
    03:00 +25°C° 0 mm 2 m/s 756 mmHg 54%
    04:00 +25°C° 0 mm 2 m/s 756 mmHg 53%
    05:00 +27°C° 0 mm 2 m/s 756 mmHg 50%
    06:00 +28°C° 0 mm 2 m/s 756 mmHg 48%
    07:00 +29°C° 0 mm 3 m/s 756 mmHg 45%
    08:00 +31°C° 0 mm 2 m/s 756 mmHg 40%
    09:00 +34°C° 0 mm 2 m/s 756 mmHg 35%
    10:00 +36°C° 0 mm 2 m/s 756 mmHg 29%
    11:00 +37°C° 0,1 mm 3 m/s 756 mmHg 29%
    12:00 +38°C° 0,1 mm 4 m/s 756 mmHg 29%
    13:00 +38°C° 0,1 mm 4 m/s 756 mmHg 28%
    14:00 +37°C° 0 mm 4 m/s 756 mmHg 32%
    15:00 +36°C° 0 mm 4 m/s 755 mmHg 36%
    16:00 +35°C° 0 mm 3 m/s 755 mmHg 39%
    17:00 +33°C° 0,3 mm 3 m/s 756 mmHg 46%
    18:00 +30°C° 0,3 mm 2 m/s 756 mmHg 54%
    19:00 +28°C° 0,3 mm 2 m/s 756 mmHg 61%
    20:00 +26°C° 0,3 mm 2 m/s 756 mmHg 67%
    21:00 +25°C° 0,3 mm 1 m/s 757 mmHg 73%
    22:00 +23°C° 0,3 mm 1 m/s 757 mmHg 79%
    23:00 +23°C° 0,1 mm 1 m/s 757 mmHg 78%

    28 Mai, Duminică

    Timp Temperatura Precipitaţii Vânt Presiune Umiditate
    00:00 +23°C° 0,1 mm 1 m/s 757 mmHg 77%
    01:00 +21°C° 0,1 mm 0 m/s 757 mmHg 76%
    02:00 +23°C° 0,2 mm 1 m/s 756 mmHg 76%
    03:00 +23°C° 0,2 mm 2 m/s 756 mmHg 76%
    04:00 +23°C° 0,2 mm 2 m/s 756 mmHg 75%
    05:00 +24°C° 0,1 mm 2 m/s 756 mmHg 72%
    06:00 +25°C° 0,1 mm 3 m/s 756 mmHg 68%
    07:00 +27°C° 0,1 mm 3 m/s 756 mmHg 64%
    08:00 +28°C° 0,3 mm 3 m/s 756 mmHg 58%
    09:00 +30°C° 0,3 mm 3 m/s 756 mmHg 52%
    10:00 +33°C° 0,3 mm 3 m/s 756 mmHg 45%
    11:00 +34°C° 0 mm 4 m/s 756 mmHg 42%
    12:00 +36°C° 0 mm 5 m/s 756 mmHg 39%
    13:00 +38°C° 0 mm 6 m/s 756 mmHg 36%
    14:00 +38°C° 0 mm 6 m/s 756 mmHg 37%
    15:00 +36°C° 0 mm 7 m/s 756 mmHg 39%
    16:00 +36°C° 0 mm 7 m/s 756 mmHg 40%
    17:00 +34°C° 0 mm 7 m/s 756 mmHg 46%
    18:00 +32°C° 0 mm 7 m/s 756 mmHg 51%
    19:00 +30°C° 0 mm 7 m/s 756 mmHg 56%
    20:00 +28°C° 0 mm 6 m/s 757 mmHg 64%
    21:00 +26°C° 0 mm 6 m/s 757 mmHg 72%
    22:00 +23°C° 0 mm 6 m/s 757 mmHg 80%
    23:00 +23°C° 0 mm 6 m/s 757 mmHg 79%
    Arată mai mult